Regional Weather Roundup
Issued by NWS

Home | Current Version | Previous Version | Text Only | Print | Product List | Glossary Off
Versions: 1 2 3 4 5 6 7 8 9 10 11 12 13 14 15 16 17 18 19 20 21 22 23 24 25 26 27 28 29 30 31 32 33 34 35 36 37 38 39 40 41 42 43 44 45 46 47 48 49 50

601
ASUS44 KLIX 282207
RWRLA
LOUISIANA WEATHER ROUNDUP
NATIONAL WEATHER SERVICE NEW ORLEANS LA
500 PM CDT SAT MAR 28 2015

NOTE: "FAIR" INDICATES FEW OR NO CLOUDS BELOW 12,000 FEET WITH NO
      SIGNIFICANT WEATHER AND/OR OBSTRUCTIONS TO VISIBILITY.
      SKY/WX - SKY CONDITION AND SIGNIFICANT WEATHER.
      TMP - AIR TEMPERATURE.    DP   - DEWPOINT TEMPERATURE.
      RH  - RELATIVE HUMIDITY.  PRES - PRESSURE.
      HX  - HEAT INDEX.         WCI  - WIND CHILL INDEX.

*  THESE STATIONS ARE NOT NWS OR FAA STATIONS AND ARE NOT UNDER
   NWS QUALITY CONTROL.

LAZ040-048-061>063-065-066-069-282300-
SOUTHEAST LOUISIANA

CITY           SKY/WX    TMP DP  RH WIND       PRES   REMARKS
N.O. AUDUBON   NOT AVBL
N.O. INTL ARPT MOSUNNY   69  44  40 SE7       30.15F
N.O. LAKEFRONT SUNNY     66  44  45 E13       30.17F
SLIDELL        SUNNY     66  42  41 S6        30.16F
BATON ROUGE    SUNNY     73  45  36 S8        30.13S
BOOTHVILLE     SUNNY     62  49  62 E8        30.20S
BELLE CHASSE   MOSUNNY   65  44  46 SE12      30.17S
BOGALUSA*        N/A     70  37  29 CALM      30.16F
GALLIANO*      CLEAR     67  47  48 CALM      30.18S
NEW ROADS*     FAIR      73  46  38 S6        30.12F
GONZALES*      FAIR      72  47  40 E5        30.13F
HAMMOND*       SUNNY     70  41  35 SE9       30.17S
HOUMA*         SUNNY     68  52  56 S12       30.17S
PORT FOURCHON* CLEAR     64  50  59 SE10      30.22R

$$

LAZ041-044-053-054-282300-
SOUTHWEST LOUISIANA

CITY           SKY/WX    TMP DP  RH WIND       PRES   REMARKS
LAKE CHARLES   SUNNY     72  55  55 S9        30.12F
LAFAYETTE      SUNNY     70  51  51 S13       30.14S
PATTERSON      SUNNY     70  50  49 SW12      30.15F
SALT POINT       N/A     66  54  65 VRB6      30.15F
NEW IBERIA     SUNNY     71  51  49 S12       30.15F
CHENAULT AIRPK NOT AVBL

$$

LAZ027-028-282300-
CENTRAL LOUISIANA

CITY           SKY/WX    TMP DP  RH WIND       PRES   REMARKS
FORT POLK      SUNNY     76  50  39 S10       30.07F
ALEXANDRIA INT SUNNY     74  46  36 VRB5      30.08S
ALEXANDRIA     SUNNY     74  46  36 SE8       30.10F

$$

LAZ001-002-282300-
NORTHWEST LOUISIANA

CITY           SKY/WX    TMP DP  RH WIND       PRES   REMARKS
SHREVEPORT     MOSUNNY   77  46  33 SW12      30.02F
BARKSDALE AFB  SUNNY     77  45  32 S8        30.03F
DTN SHREVEPORT SUNNY     75  46  35 S13       30.03F

$$

LAZ014-016-282300-
NORTHEAST LOUISIANA

CITY           SKY/WX    TMP DP  RH WIND       PRES   REMARKS
MONROE         SUNNY     65  42  43 SE8       30.14S
TALLULAH       SUNNY     62  39  42 E8        30.16F

$$




USA.gov is the U.S. government's official web portal to all federal, state and local government web resources and services.